Weather in Inchkha

Russia / Republic of Dagestan     43°05′48″N   46°46′04″E
temp.,
°C
wind,
m/s
gust,
m/s
humid.,
%
clouds,
%
prec.,
mm/h
press.,
hPa
HPBL,
m
24 october, sun
sun2400:00+10w22680 0.0 101916
03:00+9w33700 0.0 101935
06:00+8w33680 0.0 102042
09:00+13nw34510 0.0 1019475
12:00+15n33505 0.0 10181039
15:00+14nne225650 0.0 1017769
18:00+10s0070100 0.0 101810
21:00+9wsw117489 0.0 101711
25 october, mon
mon2500:00+9ssw1175100 0.0 101610
03:00+8w227695 0.0 101622
06:00+7w347585 0.0 101865
09:00+6wnw61089100 0.5 1022812
12:00+3wnw5994100 0.6 1025763
15:00+2wnw5996100 1.2 1026651
18:00+1wnw51095100 0.6 1029583
21:00+1wnw4894100 1.8 1031484
26 october, tue
tue2600:00+1wnw3695100 1.9 1031383
03:00+1wnw369897 2.9 1031256
06:000w249193 0.0 1032179
09:00+2nw3379100 0.0 1032637
12:00+3nnw3380100 0.1 1031757
15:00+2nnw228792 0.3 1031532
18:00+1nnw118666 0.1 1033159
21:000ssw11846 0.1 103327
27 october, wed
wed2700:00−1s22845 0.0 103314
03:00−1s22834 0.0 103221
06:00−1s22771 0.0 103127
09:00+4ese33580 0.0 1030338
12:00+7e33500 0.0 1027567
15:00+7ese34590 0.0 1026463
18:00+3sse33740 0.0 102750
21:00+3s22590 0.0 102525
28 october, thu
thu2800:00+3s22520 0.0 102316
03:00+3ssw11510 0.0 102310
06:00+3sw11500 0.0 102310
09:00+7nnw11450 0.0 1024190
12:00+10n22470 0.0 1022474
15:00+10nnw22520 0.0 1022436
18:00+6wsw22650 0.0 102413
21:00+5wsw22510 0.0 102412